Regional Weather Roundup
Issued by NWS

Home | Current Version | Previous Version | Graphics & Text | Print | Product List | Glossary On
Versions: 1 2 3 4 5 6 7 8 9 10 11 12 13 14 15 16 17 18 19 20 21 22 23 24 25 26 27 28 29 30 31 32 33 34 35 36 37 38 39 40 41 42 43 44 45 46 47 48 49 50
609
ASUS45 KSLC 281810
RWRUT

UTAH REGIONAL WEATHER ROUNDUP
NATIONAL WEATHER SERVICE SALT LAKE CITY UT
1200 PM MDT WED SEP 28 2016

UTZ001>011-023>025-281900-

NORTHERN UTAH

CITY           SKY/WX    TMP DP  RH WIND       PRES   REMARKS
BRIGHAM CITY     N/A     68  48  49 CALM      30.21S
DUGWAY         MOSUNNY   71  49  46 CALM      30.21F
HILL AFB       SUNNY     71  46  41 VRB1      30.21F
LOGAN          SUNNY     66  49  54 CALM      30.21F
OGDEN          SUNNY     72  46  39 CALM      30.19F
PROVO AIRPORT  MOSUNNY   66  50  55 CALM      30.22F
SALT LAKE CITY MOSUNNY   75  48  38 N5        30.18F
VERNAL         SUNNY     64  46  52 CALM      30.31F
WENDOVER       SUNNY     64  45  48 E3        30.21S
HEBER CITY     SUNNY     64  43  45 CALM      30.26F
WEST JORDAN    SUNNY     72  46  40 SE9       30.21F

$$

UTZ012>022-026-027-281900-

SOUTHERN/CENTRAL UTAH

CITY           SKY/WX    TMP DP  RH WIND       PRES   REMARKS
BLANDING       SUNNY     71  36  27 SE6       30.38F
BRYCE CANYON   PTSUNNY   63  36  36 S8        30.38F
CEDAR CITY     PTSUNNY   69  40  34 N6        30.24F
DELTA          SUNNY     72  37  28 E3        30.21F
MILFORD        MOSUNNY   71  37  28 CALM      30.21F
MOAB/CYNLANDS  SUNNY     77  36  22 MISG      30.20F
PRICE          SUNNY     70  40  33 SE5       30.29F
ST GEORGE      CLEAR     77  43  29 CALM      30.12F

$$

REGIONAL REPORTS     COLORADO/ARIZONA

CITY           SKY/WX    TMP DP  RH WIND       PRES   REMARKS
CRAIG, CO      SUNNY     69  36  29 W7        30.33F
GRAND JUNCTION SUNNY     74  37  26 SE6       30.24F
RIFLE          SUNNY     69  38  32 SW3       30.28F
MONTROSE       SUNNY     70  39  32 VRB6      30.31F
CORTEZ         SUNNY     73  36  25 SW8       30.31F
PAGE, AZ       MOSUNNY   73  42  32 W3        30.20F
GRAND CANYON   LGT RAIN  61  46  57 E8        30.33S
KINGMAN        MOSUNNY   80  49  33 SE15      30.11F
FLAGSTAFF      CLOUDY    55  49  80 CALM      30.35F

$$

REGIONAL REPORTS    NEVADA/IDAHO/WYOMING

CITY           SKY/WX    TMP DP  RH WIND       PRES   REMARKS
LAS VEGAS, NV  PTSUNNY   83  46  27 VRB3      30.05S
ELY            SUNNY     72  29  20 CALM      30.25F
ELKO           SUNNY     71  38  29 NE6       30.18F
POCATELLO, ID  SUNNY     69  47  45 E6        30.20F
BURLEY         SUNNY     67  49  52 E7        30.15S
EVANSTON, WY   SUNNY     68  39  34 NE5       30.36F
ROCK SPRINGS   SUNNY     65  37  35 SE7       30.37F

$$




USA.gov is the U.S. government's official web portal to all federal, state and local government web resources and services.